Theta_e
355 356 355 353 355 357 358 357 355 350 342 334 332 329 331 334 334 333 332 332 332 331 330 326 322 320 320 320 321 321 322 324 324 326 329 329 326 324 323 322 321 323 325 325 326 328 328 329 329 327 324 323 323 324 325 327 327 328 329 329 329 329 330
355 356 354 353 354 357 358 357 354 348 337 332 331 330 333 335 334 333 333 331 331 331 329 325 321 319 319 320 321 321 322 324 326 327 330 331 327 325 324 323 323 324 325 325 325 328 329 330 330 329 327 324 324 325 325 324 324 326 328 329 329 330 329
356 356 354 353 355 355 356 354 349 342 334 331 333 332 334 336 335 333 333 331 331 330 328 324 321 320 319 320 321 321 320 321 325 328 331 330 327 325 324 325 326 326 326 326 327 328 329 329 330 329 327 326 326 326 324 323 324 324 327 330 330 329 329
358 357 353 353 354 353 354 348 341 337 334 334 334 333 335 336 334 334 332 332 331 330 328 324 321 320 319 320 321 320 319 320 321 325 327 327 324 323 324 326 327 327 328 329 329 328 329 329 329 326 326 327 327 327 325 324 324 323 326 329 330 329 329
359 357 353 353 353 353 352 343 334 335 337 338 336 334 336 336 333 334 333 331 331 330 328 324 321 320 320 320 320 320 319 320 321 322 324 323 322 323 324 325 327 327 328 329 330 329 329 329 328 327 327 327 327 326 325 324 323 324 327 329 329 329 328
359 358 354 352 353 353 349 339 334 337 339 341 339 335 336 337 336 337 335 331 330 330 328 325 322 321 320 320 320 320 318 319 321 321 321 322 322 324 324 324 325 327 327 328 329 329 328 327 326 326 327 328 327 326 324 324 323 324 326 327 327 326 326
358 357 354 351 352 351 347 341 339 340 341 343 341 336 339 340 338 339 337 332 331 331 330 328 324 321 321 321 320 319 319 320 321 321 322 323 323 324 325 323 324 325 326 327 327 326 326 325 325 326 327 328 327 326 325 325 325 324 324 324 324 323 324
357 358 355 352 351 350 347 343 342 342 343 344 341 339 342 341 338 338 338 334 334 334 335 334 332 326 320 320 321 319 319 320 321 321 322 324 325 327 328 327 327 325 323 324 325 325 324 324 325 326 327 327 327 326 326 326 325 324 323 322 323 323 325
358 358 356 353 351 350 348 345 344 345 345 343 338 340 342 340 337 337 336 335 336 336 334 335 336 332 324 320 321 320 320 320 320 321 323 325 328 330 330 329 330 328 325 322 322 324 325 325 326 326 327 327 327 327 327 326 325 324 324 323 324 325 327
358 358 357 355 352 352 350 348 347 344 342 339 336 338 340 335 333 334 334 335 337 336 334 333 334 334 328 321 321 321 320 320 320 321 325 328 330 329 328 328 329 329 328 324 322 322 323 325 326 327 327 327 328 328 329 328 327 325 324 324 325 326 328
357 358 358 357 353 352 352 350 345 340 339 338 336 338 338 334 331 331 331 334 335 335 336 335 334 333 329 323 323 323 321 321 323 324 326 328 329 329 328 328 328 328 328 327 325 324 324 324 326 327 327 328 328 329 329 330 329 327 325 325 326 326 327
359 359 359 357 354 353 352 349 345 341 340 339 338 338 337 333 330 330 330 332 334 334 334 333 333 333 328 325 328 327 323 323 325 326 328 329 329 329 328 329 329 328 327 327 327 327 327 327 327 328 329 328 328 329 330 331 331 329 326 325 325 326 326
358 359 358 357 355 353 352 350 347 345 342 340 339 338 337 332 329 330 331 330 331 331 330 330 330 328 325 324 326 325 324 325 325 325 327 329 328 328 328 329 328 327 326 326 327 327 328 329 329 329 330 330 329 329 329 330 330 329 327 325 326 326 325
355 357 357 356 354 352 352 350 348 346 345 342 339 337 336 331 329 330 330 329 330 329 328 329 327 325 323 321 322 322 322 324 324 325 326 326 327 327 328 328 327 327 327 326 326 326 326 328 329 329 329 330 330 329 328 329 329 328 326 326 326 325 323
353 354 355 355 354 352 352 350 348 348 346 343 339 337 334 330 330 330 328 327 328 328 328 328 325 323 322 321 321 322 322 323 323 325 326 327 327 327 327 327 327 327 327 326 326 326 326 327 327 327 328 330 331 330 328 328 328 327 326 326 326 324 322
352 352 352 353 353 353 352 350 348 348 346 342 338 336 332 329 329 328 326 326 327 325 325 325 323 323 322 321 322 323 323 323 323 325 328 328 328 327 327 327 327 326 326 326 326 327 326 325 325 328 330 331 332 331 330 327 325 325 326 326 326 324 321
350 351 350 351 352 352 352 350 349 349 346 342 338 335 331 330 329 326 327 331 331 327 324 322 322 323 321 322 323 323 323 324 326 327 329 329 329 329 329 328 326 326 325 326 327 327 327 326 327 329 330 331 331 330 329 328 325 323 324 326 326 324 321
349 349 350 350 351 351 351 350 349 348 345 340 337 333 330 328 327 325 326 330 328 328 327 325 322 322 322 322 323 323 324 326 328 329 329 329 330 331 331 329 326 326 326 327 328 328 327 328 329 330 330 330 329 328 328 328 325 322 324 325 325 323 320
348 348 349 350 349 350 349 349 349 347 343 340 336 332 329 327 325 324 325 326 323 323 326 325 322 322 322 323 323 322 324 327 330 331 330 331 331 331 331 328 327 326 327 327 327 327 328 329 329 331 331 330 328 327 328 329 326 322 323 325 325 323 321
345 348 349 348 349 349 349 350 350 345 341 338 334 331 329 327 325 324 325 324 322 321 322 322 322 322 322 323 323 322 324 328 330 332 331 331 331 331 330 329 328 327 326 327 327 327 328 329 329 330 330 329 329 328 329 329 327 323 321 322 324 324 322
345 347 348 348 348 348 349 350 348 343 339 336 332 330 328 326 326 326 326 324 322 322 321 321 322 322 322 324 323 323 325 328 331 332 332 333 333 333 331 328 328 327 326 326 326 327 329 329 329 330 329 328 328 328 328 328 325 323 321 321 322 323 323
345 345 346 347 347 349 349 347 344 341 338 334 330 329 329 327 327 328 329 327 324 323 323 322 321 322 323 324 325 327 328 330 332 333 333 333 333 333 331 328 327 328 327 326 327 328 328 328 328 329 329 329 328 327 327 327 325 323 323 321 322 322 322
343 343 345 346 347 348 346 343 341 340 335 332 330 329 329 328 328 328 329 329 327 325 324 323 322 322 322 325 328 331 331 331 332 331 331 331 333 333 330 327 327 328 327 327 327 327 327 326 326 328 329 329 328 327 327 327 326 325 324 322 322 321 320
342 342 344 345 346 345 342 340 341 338 332 330 330 329 328 328 327 327 326 327 329 330 327 325 324 324 325 328 331 332 332 331 330 327 327 330 332 331 329 327 327 328 328 328 327 326 326 325 325 325 327 327 326 326 326 326 325 325 324 323 321 319 318
340 342 342 343 343 342 340 341 340 335 331 330 330 329 329 328 327 327 325 325 329 332 330 328 328 326 327 330 332 332 332 330 327 324 325 328 330 330 329 328 327 327 326 326 325 325 325 324 323 324 325 325 325 324 325 325 326 326 324 323 322 320 319
337 339 339 340 340 340 340 339 337 332 330 330 329 329 328 327 327 328 326 326 331 333 332 332 330 327 328 331 332 332 330 328 325 323 324 327 330 331 329 327 325 323 323 323 323 324 324 323 323 323 323 323 324 324 324 325 327 326 324 323 322 321 320
335 337 337 339 338 338 339 337 334 332 330 330 329 329 328 328 328 328 326 328 331 333 333 333 330 328 329 331 331 329 327 325 325 325 326 329 330 329 327 325 324 323 323 323 324 323 323 323 323 322 321 322 322 324 324 325 326 326 323 323 323 322 321
334 334 335 337 336 336 336 336 333 332 330 329 329 329 329 328 329 329 328 327 329 331 333 332 328 327 328 328 327 327 325 322 323 325 327 328 328 327 326 326 326 325 323 323 323 322 322 323 322 322 322 321 321 322 323 325 327 325 323 323 323 322 321
334 334 333 334 334 334 335 335 333 331 331 332 333 330 329 329 328 329 330 327 326 329 331 329 326 326 328 328 327 326 323 319 320 322 324 325 325 325 325 326 326 325 323 323 322 322 322 322 322 322 322 321 321 321 321 324 327 325 323 323 323 322 321
333 333 332 334 334 335 334 333 332 331 331 334 335 332 329 329 329 329 329 329 327 327 328 327 326 328 330 329 327 324 321 320 320 320 322 323 324 324 323 324 323 323 323 322 322 322 322 322 322 322 322 321 322 322 321 324 325 324 321 322 323 323 323
332 332 332 334 334 334 332 332 332 332 331 332 333 331 329 329 329 329 330 329 329 328 327 327 328 330 330 328 325 323 320 319 320 321 322 323 323 323 323 323 324 323 323 322 323 323 323 323 323 324 322 322 322 322 321 323 325 324 322 321 322 323 323
332 333 332 332 332 331 330 331 331 330 330 330 330 329 330 329 329 329 330 330 330 329 329 330 330 330 328 325 323 321 319 319 322 325 325 322 322 323 324 325 325 325 324 324 324 325 325 325 325 325 325 324 323 323 323 324 325 326 324 321 321 321 322
332 332 331 331 330 328 328 329 329 329 330 331 330 329 330 330 330 330 330 332 332 332 330 330 329 328 325 323 322 321 320 320 322 325 326 325 324 325 326 326 326 326 325 325 325 326 326 326 326 326 327 326 324 324 325 325 325 325 323 321 320 320 321
330 329 328 328 328 327 327 328 328 328 329 330 329 328 328 329 332 335 335 335 334 333 331 329 326 325 324 323 323 322 321 321 322 323 325 327 326 325 326 326 326 325 325 325 325 325 325 325 326 326 326 325 324 324 325 325 324 323 322 321 321 320 320
327 327 327 326 326 326 326 326 326 325 325 325 325 326 326 327 330 334 336 335 333 331 330 327 324 322 323 324 325 325 324 324 325 325 326 326 326 325 325 325 324 323 324 323 322 322 322 323 324 324 323 323 323 324 324 323 322 322 321 320 320 320 319
326 325 325 325 325 324 324 323 323 323 323 323 324 325 325 326 327 330 333 334 332 329 328 325 324 324 326 327 327 326 326 326 326 327 326 324 324 325 325 324 322 321 321 321 321 320 321 321 322 322 322 323 323 323 323 322 321 321 320 319 320 319 319
324 323 323 323 323 323 323 322 322 322 322 323 324 324 324 326 326 328 331 332 330 327 326 325 325 326 328 328 327 327 326 326 326 326 325 323 322 323 324 325 323 322 321 320 320 321 321 321 321 322 322 323 323 323 322 321 320 319 319 319 319 319 320
322 322 322 323 322 322 322 322 323 323 323 323 324 324 325 327 327 328 330 331 329 328 327 326 326 328 328 328 327 326 324 323 323 323 322 323 323 323 324 325 324 323 322 321 321 321 321 322 322 323 323 323 323 322 321 320 319 318 318 319 319 320 321
Wind_Speed
24 24 23 21 21 22 23 23 23 25 27 27 25 21 17 14 12 8 6 6 6 7 8 10 10 9 10 11 12 12 11 11 11 9 6 6 6 7 8 9 10 10 10 10 11 11 11 10 10 10 11 12 12 13 14 14 15 15 15 16 17 18 19
25 25 24 22 22 23 23 24 25 27 29 28 25 22 18 16 12 9 7 7 8 9 9 10 9 9 10 12 12 11 11 10 10 8 6 5 6 7 8 10 9 9 9 10 10 10 9 9 9 10 11 12 12 13 14 16 16 15 14 14 15 16 17
23 24 24 23 23 24 25 26 28 29 29 28 25 22 19 16 12 9 8 8 9 9 9 9 9 10 11 12 12 11 11 11 9 7 5 4 6 7 9 9 9 9 9 8 9 9 9 9 10 10 10 11 12 12 13 16 17 16 14 14 15 16 18
22 24 24 23 23 24 25 29 32 31 29 27 25 22 19 16 12 10 10 9 10 10 9 9 9 11 11 12 11 11 11 11 9 7 5 5 6 7 9 9 9 9 8 8 8 8 9 9 10 10 11 12 12 12 13 15 17 17 15 14 15 16 18
21 23 24 23 24 24 26 31 34 31 27 26 25 23 19 16 13 12 11 11 12 11 9 8 9 11 11 12 12 11 12 11 10 8 6 5 6 7 8 9 9 9 8 8 8 8 9 9 10 11 12 12 13 13 15 16 16 16 15 14 15 16 17
21 23 25 25 25 26 28 32 32 29 26 24 25 24 20 16 14 13 12 13 13 12 10 9 10 11 11 12 12 13 13 11 10 9 7 6 7 7 8 9 10 10 9 9 9 9 10 11 11 12 13 13 13 14 16 16 16 16 15 15 15 16 17
21 23 25 26 26 27 29 30 29 27 25 24 25 24 20 17 15 14 13 14 14 12 10 9 11 11 11 12 13 13 12 11 10 9 8 7 7 8 8 10 10 10 10 10 10 10 11 12 13 13 14 14 14 15 16 17 17 17 16 15 15 17 19
20 22 25 27 27 26 28 29 27 26 24 24 25 24 20 18 16 15 15 14 12 10 8 8 10 12 11 12 12 13 12 10 10 9 8 8 8 8 9 10 11 12 12 12 12 12 11 12 13 14 15 15 15 15 17 18 17 16 16 16 17 18 19
19 20 23 26 27 25 27 28 27 26 27 28 28 25 22 20 17 15 15 14 12 11 9 8 10 11 12 12 12 12 11 10 9 9 9 8 8 8 8 9 10 12 14 14 14 13 13 13 13 14 15 16 16 16 17 18 17 16 16 17 19 20 20
18 19 21 24 25 24 25 28 29 31 32 32 29 26 24 21 18 16 16 14 11 10 9 9 10 11 12 12 12 11 10 9 9 9 9 8 8 8 8 9 10 11 14 16 16 15 14 14 14 15 16 16 17 17 17 17 17 17 17 17 19 20 20
18 19 20 23 25 25 26 30 35 37 36 33 30 27 25 21 18 17 16 14 11 9 9 10 11 11 12 12 12 11 10 9 9 9 9 9 8 8 9 10 11 12 13 15 16 16 16 16 15 16 17 17 17 17 17 17 17 18 19 19 20 21 22
16 18 20 23 26 28 30 33 38 40 36 33 30 28 25 22 19 17 16 15 13 10 10 12 12 12 12 11 10 10 10 9 9 10 9 9 9 9 10 10 11 12 13 14 15 16 16 17 17 17 17 17 18 18 18 17 18 19 20 21 21 22 24
15 17 19 22 24 26 29 33 38 39 36 33 30 28 25 22 19 17 17 16 14 12 12 13 13 12 12 10 10 10 10 10 10 10 9 9 10 10 10 11 11 12 13 14 15 16 16 17 18 18 17 17 18 19 19 18 19 19 20 21 21 22 24
15 16 18 21 24 27 30 33 36 37 36 33 30 28 25 22 19 18 17 16 14 13 13 13 13 12 11 10 10 10 10 10 10 10 10 9 10 10 11 12 14 14 15 16 16 17 17 17 18 18 17 17 18 19 19 19 18 18 19 20 21 21 23
16 17 18 21 25 27 30 33 35 36 36 34 31 28 25 22 20 19 18 16 14 13 13 13 13 12 11 10 10 10 11 11 11 10 10 9 10 11 13 14 16 16 16 16 17 17 18 18 18 18 16 16 17 18 18 18 17 17 18 19 20 20 22
17 18 20 22 24 26 28 32 34 36 36 34 31 29 26 23 22 20 17 15 14 14 14 14 13 12 11 11 10 11 12 13 12 11 11 11 11 12 14 16 16 15 16 17 17 16 17 18 17 16 14 14 15 16 16 16 17 17 19 20 19 19 21
17 19 20 22 23 24 26 29 33 36 36 35 32 29 26 24 22 19 17 15 14 14 14 14 13 13 12 11 11 11 13 13 13 12 12 13 13 14 15 17 17 16 17 18 17 16 16 17 16 15 14 13 14 15 14 15 17 19 20 21 20 19 20
16 18 19 21 22 24 26 29 33 36 37 35 32 29 26 24 22 19 17 16 15 14 14 13 13 13 13 12 11 12 13 13 13 14 14 15 15 16 17 18 17 17 19 18 16 15 16 16 15 14 13 13 14 15 14 15 18 20 21 21 19 18 19
15 15 17 20 22 24 27 28 32 37 37 34 31 28 25 24 22 19 18 16 15 14 14 13 13 13 13 12 11 12 13 13 13 14 15 15 16 17 18 19 18 17 18 16 15 15 16 15 15 13 13 13 14 15 14 15 17 20 20 20 18 18 18
13 13 16 18 20 23 25 25 30 36 36 32 30 27 24 23 22 19 17 16 15 15 13 13 14 14 13 12 11 11 12 13 13 15 15 16 16 17 19 19 17 16 16 14 14 15 15 15 15 14 14 14 13 14 13 14 16 18 18 18 17 17 18
11 12 14 16 18 20 21 24 30 35 34 30 27 25 23 23 22 20 19 18 17 16 14 14 14 13 13 12 11 11 11 12 13 15 16 16 15 16 17 17 15 15 14 14 14 14 15 15 15 15 16 15 14 14 14 15 17 18 18 18 17 17 18
9 11 13 14 16 18 22 28 33 35 33 28 26 25 23 22 22 22 21 20 18 17 15 15 15 14 13 12 12 11 11 12 13 14 16 16 15 16 16 14 13 13 14 14 14 14 14 15 15 15 15 15 14 15 15 15 18 19 20 19 18 17 17
6 9 10 12 15 18 22 29 33 33 30 26 24 24 23 22 23 24 22 21 20 19 17 16 16 15 13 12 12 11 11 12 13 14 15 15 15 14 14 13 13 13 13 14 14 14 14 14 15 15 15 15 15 15 15 15 17 19 20 20 18 17 17
6 7 9 12 14 17 22 28 31 29 26 24 22 22 22 22 24 25 24 23 22 20 19 18 17 15 13 12 12 11 11 12 14 15 15 14 14 13 13 13 13 13 13 14 14 14 14 14 16 16 15 16 17 16 17 17 17 18 20 19 18 17 17
8 8 10 12 14 18 23 27 29 27 25 25 23 21 21 23 25 26 26 25 24 21 20 20 19 15 13 12 11 11 12 14 15 15 15 14 13 13 13 13 14 14 15 15 15 14 14 15 17 18 17 19 20 19 19 18 16 16 18 18 17 16 17
11 10 12 14 16 19 23 26 28 28 27 25 23 21 22 25 27 28 29 27 24 22 22 21 18 15 13 12 12 12 14 15 16 15 14 14 13 12 14 16 17 18 18 19 18 17 16 17 17 18 18 19 20 21 21 17 14 15 17 17 16 15 16
12 12 14 16 18 20 23 26 28 28 26 22 21 22 25 27 29 31 30 28 25 24 22 20 17 15 14 14 14 15 16 16 16 14 13 13 14 15 18 19 19 19 18 18 19 19 19 19 19 19 19 18 18 19 20 17 14 15 16 16 15 15 15
14 15 16 17 19 22 25 27 28 27 25 23 23 26 29 30 31 32 31 30 29 26 22 19 17 16 17 17 17 17 18 18 16 14 13 14 15 17 20 20 20 20 20 21 21 21 22 22 21 20 19 18 17 18 19 18 15 14 14 14 15 15 15
17 17 17 17 19 22 25 27 27 26 24 22 23 28 30 31 30 31 31 32 31 27 24 22 20 19 18 18 19 19 18 17 15 14 15 16 16 17 19 21 21 20 21 22 21 22 23 24 22 20 19 19 19 19 19 18 14 12 13 13 15 16 15
17 17 15 13 14 18 22 24 23 23 23 22 23 28 31 30 29 30 31 31 30 29 28 26 23 22 21 19 19 18 17 16 15 16 17 16 16 18 19 19 20 20 19 19 18 19 22 22 21 21 20 21 21 21 21 19 14 13 14 13 14 16 16
17 16 14 12 12 15 17 19 20 21 23 24 26 28 29 28 29 31 31 30 30 30 29 27 24 22 21 18 16 16 16 16 16 17 18 17 17 18 18 17 17 17 17 16 16 17 20 20 19 19 20 21 22 21 20 19 17 15 15 14 13 15 16
16 15 14 13 13 14 14 16 18 19 21 23 24 25 26 27 29 29 29 28 28 27 26 24 22 21 19 15 14 16 18 17 14 13 16 18 18 17 16 15 14 13 14 15 15 16 17 17 16 17 18 20 22 20 18 18 16 14 15 15 15 15 16
14 13 13 13 12 11 11 11 13 14 15 16 18 19 21 22 23 22 22 21 20 21 21 20 20 18 16 15 15 16 17 18 16 13 13 14 14 13 12 12 12 12 13 14 13 13 14 14 14 14 14 17 18 17 16 15 15 14 17 17 15 15 15
13 12 12 11 10 9 9 8 9 9 10 12 14 16 18 17 14 13 13 13 13 14 16 17 17 16 14 14 15 15 17 19 18 15 12 10 11 12 12 12 12 12 13 14 15 15 15 13 12 13 14 15 16 16 15 15 16 18 20 20 17 16 16
12 11 10 10 9 9 9 9 9 10 12 14 16 17 17 14 10 9 10 10 12 14 13 13 15 14 12 12 12 12 14 15 13 11 12 12 12 13 15 17 17 16 17 20 22 22 19 15 14 16 17 17 17 18 18 19 20 20 20 20 19 18 16
11 10 9 8 8 9 10 11 11 13 14 15 15 15 14 13 11 8 8 10 13 14 12 12 13 12 10 9 9 10 11 11 10 12 15 17 14 12 14 19 21 19 21 24 24 21 18 16 16 19 19 17 16 18 19 19 20 20 19 19 18 17 16
11 9 8 8 9 10 11 12 13 13 13 13 13 12 11 11 10 7 8 12 14 13 12 13 12 9 9 10 11 12 14 14 13 13 15 16 14 11 11 15 19 19 19 20 20 18 17 17 17 18 18 15 14 17 18 17 17 18 18 17 16 14 13
9 8 8 9 11 11 12 12 11 11 10 9 9 9 7 7 7 6 7 10 12 12 12 13 11 9 10 11 11 13 15 15 14 13 13 12 12 10 9 12 17 17 16 17 17 17 16 16 16 16 16 14 14 15 16 15 15 16 16 15 13 12 11
Wind_Direction
195 193 194 193 191 191 191 191 190 192 198 198 195 196 200 207 210 208 214 238 263 268 285 310 317 319 316 314 318 326 331 327 327 328 321 313 311 310 319 325 326 325 320 318 317 316 318 320 321 322 324 324 323 321 319 316 313 309 305 301 299 298 295
198 192 191 191 190 189 189 190 191 194 198 199 196 196 201 208 211 211 221 245 261 269 293 315 322 320 316 316 323 332 333 328 327 327 322 316 315 321 328 328 324 318 312 312 313 313 313 313 312 313 317 321 325 326 326 325 324 319 313 309 308 310 309
200 192 189 189 189 187 187 192 195 196 199 199 196 196 203 208 210 213 225 248 259 271 298 317 322 320 318 320 326 331 331 329 328 323 314 308 316 329 335 332 326 316 307 306 309 313 314 313 313 312 314 320 323 326 328 330 329 325 319 314 313 313 312
200 192 187 187 188 187 189 194 198 198 198 198 196 197 203 206 206 213 225 244 258 272 297 315 319 318 317 322 327 329 328 328 329 324 310 304 315 331 338 337 333 322 309 303 306 313 316 315 318 316 316 319 319 319 324 326 325 323 320 316 313 312 312
197 190 184 185 188 188 190 196 199 199 196 194 195 198 202 204 206 214 226 243 256 270 292 308 312 313 315 321 326 327 326 325 327 326 312 304 312 327 337 339 338 333 322 311 307 312 317 317 317 316 315 315 312 313 319 323 322 320 319 315 313 313 314
193 189 184 185 188 190 193 197 198 197 193 191 195 200 201 202 205 209 225 244 253 266 289 302 303 307 312 319 324 325 324 323 326 325 313 305 310 321 331 334 335 334 328 321 315 313 316 318 318 316 313 310 306 309 316 320 321 320 318 314 313 313 315
192 190 188 187 189 191 193 194 194 194 193 190 196 201 198 199 202 201 219 243 253 264 287 297 295 300 307 314 320 322 320 318 320 318 307 301 306 313 321 327 328 326 323 321 318 316 317 317 318 317 312 307 301 302 309 315 318 320 318 314 313 311 312
193 192 191 190 191 192 191 191 191 192 191 191 197 200 194 196 200 201 217 236 246 255 270 273 276 290 301 309 315 317 314 311 312 309 299 295 301 307 311 315 316 317 319 317 314 314 314 314 315 315 312 309 302 298 303 309 313 316 315 311 308 308 314
193 194 194 193 193 191 190 190 189 190 192 196 200 199 195 199 204 209 221 232 239 251 262 255 257 275 293 304 310 310 307 306 307 301 292 291 295 299 302 305 308 311 315 314 311 310 310 311 313 313 311 309 305 302 302 305 309 313 313 311 309 312 318
193 193 193 193 192 189 187 189 191 196 200 202 203 201 200 206 212 217 226 230 235 249 261 262 259 265 282 299 305 305 303 302 301 293 285 284 287 293 301 306 308 308 310 311 310 308 307 308 310 311 311 310 308 307 304 302 305 309 310 311 312 315 317
193 191 189 189 189 186 187 192 200 205 205 204 203 202 204 210 216 221 228 231 232 238 249 260 265 264 275 291 296 296 298 296 291 285 279 278 281 288 298 304 308 312 314 315 313 310 309 307 306 308 309 309 310 309 306 302 301 303 307 309 311 315 316
194 192 190 188 188 189 192 199 207 208 205 203 204 204 205 210 215 220 227 231 232 238 249 259 264 263 272 283 282 283 289 287 281 278 275 275 278 286 295 303 309 314 315 313 310 309 308 305 303 303 304 306 309 309 307 302 299 300 305 307 311 316 317
200 196 194 190 190 192 195 202 209 209 205 203 204 204 206 210 213 217 224 230 235 245 258 264 264 265 272 277 274 278 284 280 277 278 275 274 278 287 296 301 304 308 310 310 308 306 304 303 301 299 299 301 306 308 307 303 301 304 308 309 311 316 318
206 201 198 194 195 198 200 205 209 207 205 203 203 204 206 208 211 216 222 227 235 249 260 264 264 265 271 274 276 283 285 280 277 278 280 281 286 293 298 300 303 307 310 310 308 305 304 304 301 299 298 299 303 307 308 306 307 309 310 310 312 316 319
208 203 199 197 199 201 203 208 208 205 204 203 202 203 204 207 210 214 219 225 235 249 257 260 262 264 266 268 276 286 286 282 279 279 282 284 289 299 302 303 305 308 309 308 306 303 303 305 305 303 301 301 302 305 309 311 312 313 310 309 311 314 317
212 207 204 202 201 200 203 208 209 205 202 201 202 202 203 205 208 210 216 224 237 251 257 258 261 263 260 262 275 285 285 282 280 280 281 282 291 303 307 306 308 308 308 309 306 300 300 304 308 306 301 299 299 302 307 312 315 316 311 308 309 311 314
220 213 209 205 201 199 201 206 207 203 200 201 202 201 201 204 206 208 214 221 233 248 255 257 260 260 257 260 273 281 282 279 277 277 279 283 293 300 302 306 310 308 308 311 307 300 300 304 309 308 303 300 300 302 306 309 313 315 310 306 307 309 314
227 219 211 205 200 198 199 202 204 202 199 200 200 198 200 203 204 206 213 221 232 241 247 252 259 259 255 259 272 280 281 277 272 274 279 285 291 294 297 305 309 308 309 310 305 299 300 304 307 306 303 301 300 302 303 304 310 314 308 305 307 309 315
232 223 213 206 200 200 202 200 200 199 197 198 198 198 200 202 204 209 215 224 235 239 240 247 254 254 252 257 271 280 281 278 273 273 279 286 290 291 295 301 306 308 310 308 303 300 301 303 305 302 299 299 298 301 302 302 309 314 309 305 308 311 315
234 224 216 209 203 204 202 194 194 197 196 196 197 197 201 204 208 214 218 224 233 235 239 246 247 247 249 256 270 279 282 282 278 278 281 286 288 289 292 297 303 308 311 309 305 304 302 303 304 301 299 298 297 300 302 301 308 318 316 309 309 311 311
228 220 214 210 206 203 195 189 192 195 193 192 193 195 201 208 213 216 218 223 229 232 237 242 240 241 246 253 265 275 282 284 282 283 286 286 285 285 288 295 301 306 310 311 309 307 305 305 305 302 300 299 296 298 301 303 313 325 325 315 310 309 309
219 214 212 208 202 197 193 194 195 193 189 188 191 197 205 214 216 216 218 222 226 230 233 237 237 238 243 251 261 270 277 281 283 286 287 287 284 282 286 293 297 300 306 312 313 311 309 309 308 304 300 299 299 300 300 303 313 323 327 322 313 308 308
201 204 204 200 196 196 200 201 195 190 186 187 195 205 212 216 217 218 219 221 223 227 230 233 236 237 241 249 257 265 272 278 282 285 287 288 283 279 282 288 291 295 302 309 313 311 311 312 312 309 305 302 301 301 300 303 308 313 320 324 317 309 308
180 189 188 187 190 195 200 199 191 186 187 192 204 214 217 219 220 221 223 223 221 223 226 230 233 234 239 247 254 263 271 276 282 288 290 288 280 277 281 286 288 294 302 310 314 312 313 316 315 314 312 308 305 300 296 298 301 303 313 321 318 311 310
160 174 176 178 186 190 190 188 185 186 192 201 211 218 220 223 223 223 226 226 221 220 223 228 230 230 235 244 251 262 270 275 283 290 290 287 281 277 278 280 284 291 297 302 307 307 308 310 311 313 313 311 310 306 298 296 295 297 309 319 318 314 313
161 168 167 170 180 184 182 181 184 191 200 208 215 219 222 225 224 225 227 225 221 220 223 226 228 229 234 241 250 263 272 278 285 289 289 286 278 271 272 278 284 288 289 291 295 298 301 303 304 305 307 309 311 310 303 299 294 295 306 314 315 314 314
163 163 164 172 179 178 180 185 191 200 209 217 219 219 224 227 226 227 228 225 223 224 225 226 229 232 238 245 254 265 275 282 286 287 285 278 270 270 278 282 284 288 291 292 292 293 297 301 300 300 306 311 312 311 307 299 292 295 305 310 311 310 310
161 160 165 175 179 179 184 192 199 207 217 224 225 225 228 230 231 231 230 229 229 229 228 231 235 239 245 251 257 266 277 284 286 284 279 275 274 279 283 282 280 285 291 291 289 289 293 298 299 300 309 314 311 312 309 300 295 304 311 309 305 306 308
160 163 168 178 185 188 194 200 206 214 222 227 230 233 234 236 239 238 235 235 236 235 235 240 243 244 247 252 256 265 276 283 285 285 281 278 279 281 283 283 284 287 287 286 287 288 290 293 295 296 304 309 308 312 314 306 303 314 317 307 299 301 306
162 170 176 182 195 201 205 210 216 224 230 233 237 240 241 245 249 247 243 243 242 241 242 246 248 247 248 251 257 267 276 281 284 286 284 281 280 282 284 286 288 289 288 288 290 290 290 293 294 294 300 308 312 318 321 319 319 322 319 311 301 298 300
172 180 184 190 204 212 216 223 228 233 237 239 241 244 248 251 254 254 254 251 248 246 247 248 249 248 247 250 257 267 276 282 284 284 281 277 280 284 285 286 287 287 289 291 290 290 293 295 293 293 297 306 314 320 322 323 326 324 320 319 313 304 300
185 192 197 204 214 218 222 229 233 238 243 247 249 253 256 258 260 263 262 257 251 250 249 249 247 244 243 249 262 272 278 281 280 280 282 284 287 286 281 280 278 273 276 282 284 287 291 292 291 294 297 304 314 321 322 322 324 323 320 322 321 313 307
193 197 202 206 211 215 220 228 238 245 252 257 260 264 266 268 271 273 268 258 252 249 246 244 241 237 240 255 268 274 279 280 280 282 286 288 290 286 275 271 270 266 268 274 276 279 286 287 288 293 296 303 314 320 320 320 319 316 317 320 319 318 315
187 189 195 201 207 216 225 234 245 253 260 264 268 271 273 275 278 272 259 245 232 229 233 234 231 232 246 262 270 276 282 285 287 289 285 278 281 283 274 264 263 264 264 265 267 274 281 284 286 290 294 301 309 311 311 314 313 313 317 319 318 319 320
185 191 199 207 217 227 235 242 249 257 263 267 270 273 276 277 272 256 243 227 211 210 217 226 233 246 262 268 270 279 285 286 287 283 276 278 283 282 274 269 266 260 256 262 270 274 275 275 278 284 290 296 303 305 309 313 315 317 320 321 319 318 319
193 200 208 217 226 234 241 248 255 259 262 266 268 271 274 276 271 256 236 223 217 216 223 239 251 260 263 260 263 269 272 278 281 274 277 287 291 278 273 279 278 267 259 264 272 274 272 272 277 283 288 293 298 305 312 317 318 319 321 323 321 319 320
201 209 217 226 235 241 247 251 255 257 258 261 264 266 268 272 272 259 231 226 227 227 237 252 259 258 253 256 262 262 264 273 280 277 281 292 293 281 273 279 279 272 263 263 267 269 270 274 278 282 287 292 298 307 315 318 318 319 322 326 327 324 324
211 218 224 232 238 242 246 247 249 253 255 257 261 264 265 267 268 260 242 239 241 241 249 257 258 255 258 262 261 264 272 280 283 283 286 289 291 289 279 270 271 272 267 264 266 268 271 274 277 281 288 295 303 310 315 316 316 319 322 326 329 331 332